Regional Weather Roundup
Issued by NWS Jackson, KY

Home | Current Version | Previous Version | Text Only | Print | Product List | Glossary Off
Versions: 1 2 3 4 5 6 7 8 9 10 11 12 13 14 15 16 17 18 19 20 21 22 23 24 25 26 27 28

000
ASUS43 KJKL 132210
RWRJKL

EAST KENTUCKY HOURLY WEATHER ROUNDUP
NATIONAL WEATHER SERVICE JACKSON KY
500 PM EST WED DEC 13 2017

NOTE: "FAIR" INDICATES FEW OR NO CLOUDS BELOW 12,000 FEET WITH
NO SIGNIFICANT WEATHER AND/OR OBSTRUCTIONS TO VISIBILITY.

* THESE REPORTS ARE NOT UNDER NWS QUALITY CONTROL AND MAY NOT
  REPORT WEATHER SUCH AS PRECIPITATION AND FOG.

KYZ079-080-083-085-087-088-110-112-115-119-120-132300
...EASTERN KENTUCKY...

CITY           SKY/WX    TMP DP  RH WIND       PRES   REMARKS
JACKSON        MOCLDY    39  10  30 VRB7G17   29.56F WCI  34
LONDON         CLEAR     41   8  25 S12       29.62S
SOMERSET*      CLOUDY    43   9  24 SW9       29.63F
MONTICELLO*    PTCLDY    44  12  27 SW18G28   29.65F
WILLIAMSBURG*  CLEAR     41   7  24 SW13G21   29.64F
MIDDLESBORO*   CLOUDY    40   8  26 SW7       29.68F
HARLAN APT*    PTCLDY    37   3  23 CALM      29.65F
PIKE CO APT*   MOCLDY    38  11  33 S10G17    29.56F WCI  30
BIG SANDY APT* CLOUDY    39  12  32 S9        29.56F WCI  33
MOREHEAD APT*  CLOUDY    37   3  23 S8        29.56S WCI  31
$$

KYZ035-036-041-042-044-050-067-078-099-132300
...CENTRAL KENTUCKY...

CITY           SKY/WX    TMP DP  RH WIND       PRES   REMARKS
MT STERLING*   PTCLDY    41   9  26 W10G16    29.57R
FLEMING/MASON* PTCLDY    36  11  34 SW12G18   29.55S WCI  28
DANVILLE*      CLOUDY    39  12  33 SW16G25   29.60R WCI  30
LEXINGTON      CLOUDY    40  11  30 SW17G25   29.54S WCI  31
FRANKFORT      CLOUDY    41  11  29 SW20G30   29.54F
LOUISVILLE     PTCLDY    46  17  31 SW20      29.55F
LEBANON*         N/A     41  14  33 S20G25    29.59F
GLASGOW*       CLEAR     44  18  34 SW10G20   29.65S
BOWLING GREEN  CLEAR     48  19  31 SW13      29.66R
$$

KYZ091>093-OHZ055-061-077-WVZ005-015-034-035-042-132300
...SOUTHERN OHIO/WEST VIRGINIA...

CITY           SKY/WX    TMP DP  RH WIND       PRES   REMARKS
COVINGTON      MOCLDY    38  14  37 SW20G28   29.47F WCI  28
COLUMBUS       CLOUDY    28  12  51 S9        29.50S WCI  19
DAYTON         MOCLDY    32  14  47 SW16      29.47S WCI  21
WILMINGTON     CLOUDY    32  15  49 S13       29.45F WCI  22
HUNTINGTON     CLOUDY    37   8  30 S6        29.55F WCI  32
CHARLESTON     CLOUDY    33  12  41 E3        29.58F
PINEVILLE*     CLOUDY    37  14  40 MISG      29.66F
BECKLEY        CLOUDY    33  15  47 S10       29.56F WCI  25
BLUEFIELD      CLOUDY    31  13  47 SW13      29.62F WCI  21
LOGAN CO APT*  CLOUDY    36  12  38 VRB7G24   29.56F WCI  30
$$

VAZ002-007-008-TNZ017-027-036-066-071-132300
...SOUTHWEST VIRGINIA/EAST TENNESSEE...

CITY           SKY/WX    TMP DP  RH WIND       PRES   REMARKS
WISE*          CLOUDY    34  12  40 S14       29.61F WCI  24
JONESVILLE*      N/A     41   3  20 SW5       29.70F
ABINGDON*      CLOUDY    38  11  32 W6        29.69S WCI  34
BRISTOL        MOCLDY    41  12  30 W10       29.71F
MORRISTOWN*    PTCLDY    43   1  17 SW12G17   29.69F
SEVIERVILLE*   MOCLDY    48   5  17 W6G15     29.72F
KNOXVILLE      PTCLDY    44  11  26 SW23G31   29.74F
LAFOLLETTE*    PTCLDY    41   9  26 S12G18    29.72F
OAK RIDGE      PTCLDY    43  11  27 SW10G20   29.75F
CROSSVILLE     CLEAR     39  11  31 S15G22    29.70F WCI  31
NASHVILLE      MOCLDY    50  16  25 SW12G25   29.72R
$$

...KEY TO REMARKS...
VSB - VISIBILITY IN MILES
WCI - WIND CHILL INDEX
HX  - HEAT INDEX

$$




USA.gov is the U.S. government's official web portal to all federal, state and local government web resources and services.